FW8095 Weather Reports


time (UTC)temp
F
wind
direction
speed
knots
gust
knots
rain 1hr
in
rain 24hr
in
rain mn
in
humidity
%
barometer
mb
20260510224536 74 0 0.0 0.0 0.00 0.00 0.00 77 1016.8
20260510223035 74 0 0.0 0.0 0.00 0.00 0.00 80 1016.9
20260510221543 74 0 0.0 0.0 0.00 0.00 0.00 78 1017.0
20260510220040 75 0 0.0 1.7 0.00 0.00 0.00 75 1017.2
20260510214541 76 0 0.0 1.7 0.00 0.00 0.00 73 1016.9
20260510213035 76 0 0.0 1.7 0.00 0.00 0.00 76 1017.1
20260510211536 76 0 0.0 1.7 0.00 0.00 0.00 75 1017.0
20260510210042 76 0 0.0 0.9 0.00 0.00 0.00 72 1017.2
20260510204544 76 199 0.0 1.7 0.00 0.00 0.00 71 1017.0
20260510203036 77 0 0.0 2.6 0.00 0.00 0.00 70 1017.1
20260510201538 78 250 0.9 2.6 0.00 0.00 0.00 69 1017.2
20260510200032 78 204 0.0 1.7 0.00 0.00 0.00 71 1017.3
20260510194547 79 265 0.0 2.6 0.00 0.00 0.00 69 1017.5
20260510193040 79 0 0.0 2.6 0.00 0.00 0.00 68 1017.5
20260510191539 78 269 0.0 2.6 0.00 0.00 0.00 71 1017.6
20260510190047 77 0 0.0 1.7 0.00 0.00 0.00 74 1017.7
20260510184536 75 253 0.0 3.5 0.00 0.00 0.00 76 1018.1
20260510183039 74 0 0.0 2.6 0.00 0.00 0.00 76 1018.2
20260510181539 73 279 0.0 0.9 0.00 0.00 0.00 81 1018.3
20260510180035 71 0 0.0 0.0 0.00 0.00 0.00 82 1018.5
20260510174538 70 0 0.0 0.0 0.00 0.00 0.00 83 1018.5
20260510173033 70 0 0.0 0.0 0.00 0.00 0.00 86 1018.7
20260510171538 69 0 0.0 0.0 0.00 0.00 0.00 86 1018.8
20260510170038 69 0 0.0 0.0 0.00 0.00 0.00 86 1019.0
20260510164541 69 0 0.0 0.0 0.00 0.00 0.00 87 1019.1
20260510163035 68 0 0.0 0.0 0.00 0.00 0.00 88 1018.9
20260510161534 68 0 0.0 0.0 0.00 0.00 0.00 89 1018.9
20260510160043 67 0 0.0 0.0 0.00 0.00 0.00 90 1018.8
20260510154537 67 0 0.0 0.0 0.00 0.00 0.00 91 1018.9
20260510153036 66 0 0.0 0.0 0.00 0.00 0.00 91 1018.8
20260510151543 66 0 0.0 0.0 0.00 0.00 0.00 92 1018.8
20260510150041 66 0 0.0 0.0 0.00 0.00 0.00 93 1018.7
20260510144600 66 0 0.0 0.0 0.00 0.00 0.00 94 1018.7
20260510143039 65 0 0.0 0.0 0.00 0.00 0.00 94 1018.8
20260510141602 65 0 0.0 0.0 0.00 0.00 0.00 95 1018.7
20260510140038 64 0 0.0 0.9 0.00 0.00 0.00 96 1018.6
20260510134547 63 0 0.0 0.0 0.00 0.00 0.00 97 1018.4
20260510133045 63 0 0.0 0.9 0.00 0.00 0.00 97 1018.5
20260510131543 63 293 0.0 0.9 0.00 0.00 0.00 97 1018.3
20260510130039 63 0 0.0 0.0 0.00 0.00 0.00 97 1018.3
20260510124537 63 0 0.0 0.0 0.00 0.00 0.00 97 1018.1
20260510123035 63 0 0.0 0.0 0.00 0.00 0.00 97 1018.0
20260510121534 63 0 0.0 0.0 0.00 0.00 0.00 97 1017.8
20260510120039 63 0 0.0 0.0 0.00 0.00 0.00 97 1017.5
20260510114602 63 0 0.0 0.0 0.00 0.00 0.00 97 1017.3
20260510113051 63 0 0.0 0.0 0.00 0.00 0.00 97 1017.0
20260510111542 62 0 0.0 0.0 0.00 0.00 0.00 97 1016.6
20260510110038 62 0 0.0 0.0 0.00 0.00 0.00 97 1016.3
20260510104533 62 0 0.0 0.0 0.00 0.00 0.00 97 1016.0
20260510103038 62 0 0.0 0.0 0.00 0.00 0.00 97 1015.8
20260510101537 62 0 0.0 0.0 0.00 0.00 0.00 97 1015.6
20260510100050 62 0 0.0 0.9 0.00 0.00 0.00 97 1015.6
20260510094537 63 0 0.0 0.0 0.00 0.00 0.00 97 1015.3
20260510093039 63 0 0.0 0.0 0.00 0.00 0.00 97 1015.1
20260510091538 63 0 0.0 0.0 0.00 0.00 0.00 97 1014.9
20260510090038 63 0 0.0 0.0 0.00 0.00 0.00 97 1014.7
20260510084539 63 0 0.0 0.0 0.00 0.04 0.00 97 1014.5
20260510083043 63 0 0.0 0.0 0.00 0.04 0.00 97 1014.4
20260510081539 63 0 0.0 0.0 0.00 0.04 0.00 96 1014.4
20260510080039 63 0 0.0 0.0 0.00 0.04 0.00 96 1014.2
20260510074543 63 0 0.0 0.0 0.00 0.04 0.00 96 1014.3
20260510073037 63 0 0.0 0.0 0.00 0.04 0.00 96 1014.2
20260510071542 63 0 0.0 0.0 0.00 0.04 0.00 96 1014.4
20260510070052 63 0 0.0 0.0 0.00 0.04 0.00 96 1014.4
20260510064543 63 0 0.0 0.0 0.00 0.04 0.00 96 1014.5
20260510063042 63 0 0.0 0.0 0.00 0.04 0.00 96 1014.8
20260510061538 63 0 0.0 0.0 0.00 0.04 0.00 96 1014.9
20260510060042 63 0 0.0 0.0 0.00 0.04 0.00 96 1014.6
20260510054542 63 0 0.0 0.0 0.00 0.04 0.00 96 1014.9
20260510053036 63 0 0.0 0.0 0.00 0.04 0.00 96 1014.8
20260510051539 63 0 0.0 0.0 0.00 0.04 0.00 96 1014.9
20260510050035 63 0 0.0 0.0 0.00 0.04 0.00 95 1014.9
20260510044539 63 0 0.0 0.0 0.00 0.04 0.04 95 1015.0
20260510043037 63 0 0.0 0.0 0.00 0.04 0.04 95 1015.0
20260510041547 64 0 0.0 0.0 0.00 0.04 0.04 95 1015.1
20260510040038 64 0 0.0 0.0 0.00 0.04 0.04 95 1015.1
20260510034535 65 0 0.0 0.0 0.00 0.04 0.04 94 1015.3
20260510033048 65 0 0.0 0.0 0.00 0.04 0.04 94 1015.2
20260510031538 65 0 0.0 0.0 0.00 0.04 0.04 94 1015.3
20260510030038 65 0 0.0 0.0 0.00 0.04 0.04 93 1015.0
20260510024534 65 0 0.0 0.9 0.00 0.04 0.04 93 1015.1
20260510023039 66 0 0.0 0.0 0.00 0.04 0.04 93 1015.1
20260510021541 66 0 0.0 0.0 0.00 0.04 0.04 93 1014.8
20260510020059 66 0 0.0 0.0 0.00 0.04 0.04 92 1014.5
20260510014536 66 0 0.0 0.0 0.00 0.04 0.04 92 1014.4
20260510013039 66 0 0.0 0.0 0.00 0.04 0.04 91 1013.9
20260510011539 66 0 0.0 0.0 0.00 0.04 0.04 90 1013.7
20260510010036 67 0 0.0 0.0 0.00 0.04 0.04 90 1013.5
20260510004536 67 0 0.0 0.0 0.00 0.04 0.04 89 1013.2
20260510003042 68 0 0.0 0.9 0.00 0.04 0.04 89 1013.5
20260510001544 68 0 0.0 0.9 0.00 0.04 0.04 88 1013.3
20260510000048 68 0 0.0 0.0 0.00 0.04 0.04 88 1013.1
20260509234545 69 0 0.0 0.0 0.00 0.04 0.04 87 1012.8
20260509233034 69 0 0.0 0.0 0.00 0.04 0.04 86 1012.6
20260509231539 69 0 0.0 0.0 0.00 0.04 0.04 84 1012.5
20260509230039 70 0 0.0 0.0 0.00 0.04 0.04 83 1012.5